GW4567 Weather Reports


time (UTC)temp
F
wind
direction
speed
knots
gust
knots
rain 1hr
in
rain 24hr
in
rain mn
in
humidity
%
barometer
mb
20260510061516 51 207 1.7 1.7 0.00 0.00 0.00 81 1012.6
20260510061012 50 226 2.6 2.6 0.00 0.00 0.00 82 1012.7
20260510060509 50 197 3.5 3.5 0.00 0.00 0.00 81 1013.0
20260510060006 50 162 0.9 1.7 0.00 0.00 0.00 82 1013.1
20260510055501 51 156 0.9 0.9 0.00 0.00 0.00 80 1013.2
20260510055000 51 221 1.7 1.7 0.00 0.00 0.00 81 1013.0
20260510054455 51 177 2.6 2.6 0.00 0.00 0.00 79 1013.1
20260510053950 51 226 1.7 1.7 0.00 0.00 0.00 79 1013.1
20260510053445 51 218 1.7 1.7 0.00 0.00 0.00 79 1013.1
20260510052942 52 204 1.7 1.7 0.00 0.00 0.00 81 1013.2
20260510052438 51 238 0.9 0.9 0.00 0.00 0.00 82 1013.3
20260510051934 50 237 1.7 2.6 0.00 0.00 0.00 83 1013.3
20260510051431 49 217 1.7 1.7 0.00 0.00 0.00 82 1013.2
20260510050927 50 157 0.0 0.0 0.00 0.00 0.00 80 1013.3
20260510050424 50 157 0.0 0.9 0.00 0.00 0.00 80 1013.2
20260510045921 50 150 0.0 0.0 0.00 0.00 0.00 81 1013.1
20260510045419 50 222 1.7 1.7 0.00 0.00 0.00 81 1013.2
20260510044915 49 199 1.7 1.7 0.00 0.00 0.00 81 1013.1
20260510044412 49 197 0.0 0.9 0.00 0.00 0.00 80 1012.9
20260510043908 49 200 0.9 0.9 0.00 0.00 0.00 79 1012.9
20260510043404 49 263 0.0 0.0 0.00 0.00 0.00 77 1012.9
20260510042903 51 260 0.9 0.9 0.00 0.00 0.00 75 1012.5
20260510042358 52 142 0.9 0.9 0.00 0.00 0.00 75 1012.8
20260510041854 52 211 0.9 1.7 0.00 0.00 0.00 76 1012.8
20260510041352 52 215 2.6 2.6 0.00 0.00 0.00 75 1013.0
20260510040849 53 139 1.7 1.7 0.00 0.00 0.00 74 1012.6
20260510040346 53 233 0.0 0.0 0.00 0.00 0.00 73 1012.7
20260510035841 53 233 0.0 0.9 0.00 0.00 0.00 73 1012.8
20260510035337 53 251 1.7 2.6 0.00 0.00 0.00 72 1012.9
20260510034833 54 344 0.0 0.9 0.00 0.00 0.00 70 1012.7
20260510034331 55 341 0.0 0.0 0.00 0.00 0.00 69 1012.8
20260510033827 56 341 0.0 0.0 0.00 0.00 0.00 66 1012.6
20260510033324 57 296 0.0 0.0 0.00 0.00 0.00 64 1012.7
20260510032821 58 259 1.7 2.6 0.00 0.00 0.00 64 1012.8
20260510032318 58 272 2.6 2.6 0.00 0.00 0.00 64 1012.8
20260510031813 58 261 4.3 6.1 0.00 0.00 0.00 65 1012.7
20260510031309 58 233 4.3 5.2 0.00 0.00 0.00 64 1012.9
20260510030809 58 243 4.3 5.2 0.00 0.00 0.00 64 1012.6
20260510030306 58 239 4.3 5.2 0.00 0.00 0.00 63 1012.7
20260510025803 58 247 3.5 5.2 0.00 0.00 0.00 63 1012.7
20260510025300 58 271 5.2 5.2 0.00 0.00 0.00 62 1012.6
20260510024757 59 321 0.9 3.5 0.00 0.00 0.00 62 1012.5
20260510024254 58 258 4.3 5.2 0.00 0.00 0.00 63 1012.4
20260510023750 57 248 3.5 5.2 0.00 0.00 0.00 64 1012.6
20260510023247 59 255 1.7 1.7 0.00 0.00 0.00 61 1012.4
20260510022743 60 221 4.3 5.2 0.00 0.00 0.00 60 1012.5
20260510022243 59 249 4.3 6.1 0.00 0.00 0.00 60 1012.4
20260510021742 60 289 3.5 3.5 0.00 0.00 0.00 60 1012.6
20260510021241 60 261 4.3 5.2 0.00 0.00 0.00 59 1012.4
20260510020737 60 275 3.5 3.5 0.00 0.00 0.00 59 1012.4
20260510020236 60 256 3.5 3.5 0.00 0.00 0.00 59 1012.2
20260510015733 60 277 2.6 2.6 0.00 0.00 0.00 59 1012.1
20260510015229 60 280 3.5 3.5 0.00 0.00 0.00 58 1012.0
20260510014724 60 270 2.6 3.5 0.00 0.00 0.00 58 1011.9
20260510014222 61 253 3.5 3.5 0.00 0.00 0.00 58 1011.8
20260510013717 61 268 1.7 2.6 0.00 0.00 0.00 56 1011.7
20260510013214 61 270 2.6 3.5 0.00 0.00 0.00 56 1011.7
20260510012713 61 282 1.7 1.7 0.00 0.00 0.00 57 1011.6
20260510012209 60 264 2.6 3.5 0.00 0.00 0.00 58 1011.4
20260510011704 60 283 2.6 2.6 0.00 0.00 0.00 59 1011.4
20260510011200 62 3 0.0 0.0 0.00 0.00 0.00 55 1011.1
20260510010656 63 241 0.0 0.9 0.00 0.00 0.00 52 1011.2
20260510010148 63 231 2.6 2.6 0.00 0.00 0.00 52 1011.2
20260510005644 61 230 1.7 2.6 0.00 0.00 0.00 55 1011.0
20260510005141 63 307 0.0 0.0 0.00 0.00 0.00 54 1011.0
20260510004639 64 256 2.6 2.6 0.00 0.00 0.00 50 1010.9
20260510004137 64 238 1.7 1.7 0.00 0.00 0.00 50 1010.7
20260510003634 64 263 2.6 2.6 0.00 0.00 0.00 50 1010.7
20260510003130 64 240 3.5 3.5 0.00 0.00 0.00 50 1010.8
20260510002629 64 257 1.7 2.6 0.00 0.00 0.00 51 1010.8
20260510002127 64 243 1.7 2.6 0.00 0.00 0.00 50 1010.8
20260510001623 65 259 1.7 1.7 0.00 0.00 0.00 50 1010.7
20260510001122 65 241 1.7 1.7 0.00 0.00 0.00 49 1010.4
20260510000622 65 256 1.7 1.7 0.00 0.00 0.00 49 1010.3
20260510000120 66 258 0.9 0.9 0.00 0.00 0.00 48 1010.3
20260509235616 67 245 2.6 2.6 0.00 0.00 0.00 47 1010.3
20260509235113 67 244 0.9 0.9 0.00 0.00 0.00 46 1010.1
20260509234609 69 262 0.9 1.7 0.00 0.00 0.00 44 1010.3
20260509234107 71 249 0.9 0.9 0.00 0.00 0.00 43 1010.2
20260509233604 71 348 3.5 5.2 0.00 0.00 0.00 42 1010.3
20260509233101 71 1 1.7 1.7 0.00 0.00 0.00 43 1010.2
20260509232557 71 280 0.9 1.7 0.00 0.00 0.00 42 1010.2
20260509232055 71 26 1.7 1.7 0.00 0.00 0.00 43 1010.3
20260509231551 71 26 1.7 1.7 0.00 0.00 0.00 43 1010.3
20260509231049 71 356 2.6 3.5 0.00 0.00 0.00 42 1010.1
20260509230545 71 342 3.5 3.5 0.00 0.00 0.00 42 1010.2
20260509230043 71 353 0.9 1.7 0.00 0.00 0.00 42 1010.3
20260509225538 71 328 4.3 6.1 0.00 0.00 0.00 40 1010.2
20260509225033 71 345 5.2 7.8 0.00 0.00 0.00 41 1010.3
20260509224529 71 45 7.0 7.8 0.00 0.00 0.00 42 1010.3
20260509224026 72 11 7.0 8.7 0.00 0.00 0.00 40 1010.2
20260509223523 72 337 7.0 8.7 0.00 0.00 0.00 41 1010.2
20260509223021 71 354 7.0 9.6 0.00 0.00 0.00 40 1010.4
20260509222517 70 331 8.7 8.7 0.00 0.00 0.00 42 1010.2
20260509222012 70 34 7.0 8.7 0.00 0.00 0.00 42 1010.3
20260509221509 70 3 6.1 8.7 0.00 0.00 0.00 41 1010.3
20260509221004 69 338 7.8 11.3 0.00 0.00 0.00 42 1010.4
20260509220501 69 240 7.8 8.7 0.00 0.00 0.00 48 1010.4
20260509215957 69 142 1.7 2.6 0.00 0.00 0.00 48 1010.3
20260509215452 69 326 0.9 2.6 0.00 0.00 0.00 49 1010.4
20260509214950 69 233 2.6 3.5 0.00 0.00 0.00 48 1010.1
20260509214447 68 146 0.0 1.7 0.00 0.00 0.00 50 1010.2
20260509213944 68 111 3.5 3.5 0.00 0.00 0.00 49 1010.1
20260509213440 68 105 3.5 3.5 0.00 0.00 0.00 49 1010.0
20260509212937 68 102 4.3 6.1 0.00 0.00 0.00 49 1010.1
20260509212435 68 75 2.6 5.2 0.00 0.00 0.00 49 1009.8
20260509211930 69 72 2.6 3.5 0.00 0.00 0.00 47 1009.8
20260509211426 70 55 3.5 3.5 0.00 0.00 0.00 46 1009.7
20260509210923 69 137 0.9 1.7 0.00 0.00 0.00 45 1010.0
20260509210420 69 125 3.5 7.0 0.00 0.00 0.00 45 1009.8
20260509205915 69 91 5.2 5.2 0.00 0.00 0.00 46 1009.9
20260509205415 69 78 3.5 5.2 0.00 0.00 0.00 47 1009.6
20260509204911 69 86 2.6 3.5 0.00 0.00 0.00 46 1009.6
20260509204408 69 331 1.7 1.7 0.00 0.00 0.00 45 1009.8
20260509203904 69 51 1.7 1.7 0.00 0.00 0.00 45 1009.6
20260509203401 70 109 5.2 6.1 0.00 0.00 0.00 46 1009.7
20260509202858 69 15 4.3 5.2 0.00 0.00 0.00 48 1009.6
20260509202354 69 44 4.3 6.1 0.00 0.00 0.00 47 1009.6
20260509201849 68 40 5.2 6.1 0.00 0.00 0.00 48 1009.7
20260509201345 68 59 7.0 8.7 0.00 0.00 0.00 48 1009.7
20260509200842 69 54 8.7 9.6 0.00 0.00 0.00 48 1009.7
20260509200336 69 67 1.7 2.6 0.00 0.00 0.00 48 1009.8
20260509195834 69 32 3.5 3.5 0.00 0.00 0.00 46 1009.8
20260509195333 69 30 4.3 5.2 0.00 0.00 0.00 46 1009.8
20260509194828 69 67 3.5 5.2 0.00 0.00 0.00 46 1009.7
20260509194324 70 79 3.5 5.2 0.00 0.00 0.00 44 1009.7
20260509193821 70 37 2.6 2.6 0.00 0.00 0.00 45 1009.5
20260509193320 70 63 2.6 3.5 0.00 0.00 0.00 45 1009.7
20260509192817 70 61 2.6 3.5 0.00 0.00 0.00 44 1009.9
20260509192313 71 70 3.5 3.5 0.00 0.00 0.00 42 1009.8
20260509191808 72 79 1.7 2.6 0.00 0.00 0.00 42 1009.8
20260509191304 73 150 0.9 0.9 0.00 0.00 0.00 42 1009.7
20260509190800 72 92 3.5 5.2 0.00 0.00 0.00 42 1009.9
20260509190258 69 38 4.3 6.1 0.00 0.00 0.00 45 1010.0
20260509185755 69 38 4.3 6.1 0.00 0.00 0.00 45 1010.0
20260509185251 69 44 3.5 3.5 0.00 0.00 0.00 46 1010.1
20260509184749 69 83 5.2 7.0 0.00 0.00 0.00 47 1010.0
20260509184247 0 0.0 0.0 0.00 0.00 0.00 1010.2
20260509183743 0 0.0 0.0 0.00 0.00 0.00 1010.0
20260509183238 71 204 6.1 7.0 0.00 0.00 0.00 43 1010.1
20260509182733 71 204 6.1 7.0 0.00 0.00 0.00 43 1010.3
20260509182231 69 178 0.9 1.7 0.00 0.00 0.00 44 1010.1
20260509181728 69 142 2.6 3.5 0.00 0.00 0.00 46 1010.3
20260509181225 68 112 1.7 2.6 0.00 0.00 0.00 47 1010.4
20260509180722 67 142 1.7 3.5 0.00 0.00 0.00 47 1010.6
20260509180219 67 156 1.7 2.6 0.00 0.00 0.00 48 1010.8
20260509175715 66 57 0.9 1.7 0.00 0.00 0.00 48 1011.0
20260509175212 65 103 1.7 1.7 0.00 0.00 0.00 50 1011.0
20260509174707 66 132 3.5 3.5 0.00 0.00 0.00 48 1011.0
20260509174202 67 114 2.6 3.5 0.00 0.00 0.00 48 1010.8
20260509173659 66 159 1.7 1.7 0.00 0.00 0.00 49 1011.1
20260509173155 67 234 1.7 1.7 0.00 0.00 0.00 48 1011.2
20260509172651 66 193 1.7 2.6 0.00 0.00 0.00 50 1011.3
20260509172147 66 193 3.5 3.5 0.00 0.00 0.00 47 1011.3
20260509171643 66 260 0.9 0.9 0.00 0.00 0.00 49 1011.6
20260509171140 65 77 0.0 0.0 0.00 0.00 0.00 49 1011.3
20260509170637 65 217 2.6 2.6 0.00 0.00 0.00 48 1011.6
20260509170132 65 227 3.5 3.5 0.00 0.00 0.00 48 1011.6
20260509165631 64 151 1.7 2.6 0.00 0.00 0.00 50 1011.8
20260509165127 64 208 1.7 1.7 0.00 0.00 0.00 50 1011.7
20260509164623 63 158 0.9 0.9 0.00 0.00 0.00 49 1011.7
20260509164119 63 125 1.7 1.7 0.00 0.00 0.00 51 1011.9
20260509163617 63 119 1.7 1.7 0.00 0.00 0.00 51 1011.8
20260509163112 63 178 1.7 2.6 0.00 0.00 0.00 50 1011.7
20260509162610 63 139 0.9 0.9 0.00 0.00 0.00 51 1011.8
20260509162105 63 156 2.6 3.5 0.00 0.00 0.00 52 1011.9
20260509161557 62 131 2.6 3.5 0.00 0.00 0.00 52 1012.1
20260509161056 62 117 2.6 3.5 0.00 0.00 0.00 53 1012.1
20260509160553 61 63 1.7 3.5 0.00 0.00 0.00 55 1012.3
20260509160048 61 88 3.5 6.1 0.00 0.00 0.00 55 1012.2
20260509155544 61 70 3.5 5.2 0.00 0.00 0.00 57 1012.1
20260509155041 61 69 3.5 5.2 0.00 0.00 0.00 56 1012.3
20260509154537 61 62 5.2 6.1 0.00 0.00 0.00 56 1012.3
20260509154035 61 56 6.1 7.0 0.00 0.00 0.00 55 1012.3
20260509153531 61 77 3.5 3.5 0.00 0.00 0.00 55 1012.2
20260509153028 61 73 3.5 5.2 0.00 0.00 0.00 54 1012.1
20260509152524 61 30 3.5 5.2 0.00 0.00 0.00 54 1012.1
20260509152021 62 78 1.7 1.7 0.00 0.00 0.00 52 1011.8
20260509151517 62 30 3.5 5.2 0.00 0.00 0.00 54 1011.9
20260509151015 62 108 3.5 7.0 0.00 0.00 0.00 53 1012.1
20260509150512 62 109 3.5 3.5 0.00 0.00 0.00 53 1011.8
20260509150011 61 85 4.3 5.2 0.00 0.00 0.00 54 1012.0
20260509145506 61 110 2.6 3.5 0.00 0.00 0.00 52 1012.2
20260509145001 61 68 2.6 6.1 0.00 0.00 0.00 53 1012.2
20260509144459 61 62 2.6 3.5 0.00 0.00 0.00 55 1012.2
20260509143955 61 64 6.1 7.8 0.00 0.00 0.00 54 1012.2
20260509143452 61 115 4.3 5.2 0.00 0.00 0.00 54 1012.2
20260509142949 61 60 1.7 1.7 0.00 0.00 0.00 55 1011.9
20260509142445 61 93 3.5 3.5 0.00 0.00 0.00 55 1012.0
20260509141941 61 60 1.7 1.7 0.00 0.00 0.00 54 1012.2
20260509141438 60 59 0.9 2.6 0.00 0.00 0.00 56 1012.2
20260509140935 60 80 1.7 1.7 0.00 0.00 0.00 56 1012.2
20260509140431 59 51 1.7 1.7 0.00 0.00 0.00 56 1012.3
20260509135930 59 68 0.9 1.7 0.00 0.00 0.00 57 1012.4
20260509135427 59 99 0.9 0.9 0.00 0.00 0.00 55 1012.4
20260509134924 60 80 3.5 3.5 0.00 0.00 0.00 55 1012.2
20260509134421 59 57 0.9 1.7 0.00 0.00 0.00 56 1012.5
20260509133918 58 300 0.0 0.9 0.00 0.00 0.00 58 1012.4
20260509133415 58 307 0.9 3.5 0.00 0.00 0.00 60 1012.7
20260509132914 58 334 2.6 2.6 0.00 0.00 0.00 61 1012.6
20260509132411 57 310 2.6 2.6 0.00 0.00 0.00 62 1012.6
20260509131908 57 321 1.7 2.6 0.00 0.00 0.00 64 1012.5
20260509131405 56 304 3.5 3.5 0.00 0.00 0.00 64 1012.4
20260509130902 56 310 1.7 1.7 0.00 0.00 0.00 67 1012.2
20260509130357 56 289 0.0 0.0 0.00 0.00 0.00 67 1012.4
20260509125854 55 290 0.0 0.9 0.00 0.00 0.00 66 1012.3
20260509125350 55 304 1.7 1.7 0.00 0.00 0.00 66 1012.3
20260509124846 55 311 1.7 1.7 0.00 0.00 0.00 66 1012.4
20260509124344 55 264 0.0 0.0 0.00 0.00 0.00 68 1012.4
20260509123842 54 257 0.0 0.0 0.00 0.00 0.00 70 1012.3
20260509123339 54 50 0.9 1.7 0.00 0.00 0.00 70 1012.1
20260509122834 54 250 0.0 0.0 0.00 0.00 0.00 68 1012.2
20260509122331 54 291 0.9 1.7 0.00 0.00 0.00 66 1012.3
20260509121828 53 268 0.9 1.7 0.00 0.00 0.00 66 1012.4
20260509121325 53 275 1.7 2.6 0.00 0.00 0.00 67 1012.4
20260509120824 53 272 3.5 5.2 0.00 0.00 0.00 66 1012.5
20260509120321 53 266 3.5 3.5 0.00 0.00 0.00 67 1012.5
20260509115819 53 266 1.7 2.6 0.00 0.00 0.00 67 1012.4
20260509115316 53 292 2.6 2.6 0.00 0.00 0.00 65 1012.4
20260509114814 54 299 1.7 1.7 0.00 0.00 0.00 65 1012.2
20260509114312 54 303 0.9 2.6 0.00 0.00 0.00 65 1012.4
20260509113812 53 296 1.7 1.7 0.00 0.00 0.00 66 1012.5
20260509113307 53 291 1.7 1.7 0.00 0.00 0.00 67 1012.5
20260509112804 52 284 0.9 0.9 0.00 0.00 0.00 68 1012.4
20260509112302 52 287 1.7 1.7 0.00 0.00 0.00 69 1012.6
20260509111758 51 294 0.9 2.6 0.00 0.00 0.00 70 1012.3
20260509111255 52 64 0.9 1.7 0.00 0.00 0.00 71 1012.4
20260509110753 52 37 1.7 2.6 0.00 0.00 0.00 69 1012.4
20260509110249 52 305 2.6 3.5 0.00 0.00 0.00 68 1012.0
20260509105747 51 296 1.7 2.6 0.00 0.00 0.00 69 1012.1
20260509105245 51 290 2.6 3.5 0.00 0.00 0.00 70 1012.1
20260509104741 51 249 0.0 0.0 0.00 0.00 0.00 70 1012.1
20260509104238 51 259 0.0 1.7 0.00 0.00 0.00 70 1012.0
20260509103737 51 287 0.9 1.7 0.00 0.00 0.00 70 1012.0
20260509103233 51 280 1.7 1.7 0.00 0.00 0.00 72 1012.2
20260509102731 51 287 1.7 1.7 0.00 0.00 0.00 71 1012.1
20260509102228 51 327 0.0 1.7 0.00 0.00 0.00 71 1012.1
20260509101719 51 353 0.9 1.7 0.00 0.00 0.00 70 1012.0
20260509101215 52 64 0.0 0.9 0.00 0.00 0.00 68 1012.2
20260509100713 51 305 0.0 1.7 0.00 0.00 0.00 67 1012.1
20260509100211 51 276 0.0 0.9 0.00 0.00 0.00 68 1011.9
20260509095707 51 283 0.0 0.9 0.00 0.00 0.00 68 1011.9
20260509095204 52 291 0.0 0.9 0.00 0.00 0.00 68 1011.9
20260509094700 52 329 1.7 1.7 0.00 0.00 0.00 67 1012.0
20260509094157 52 272 0.0 0.0 0.00 0.00 0.00 66 1011.9
20260509093656 52 229 0.0 0.0 0.00 0.00 0.00 66 1011.9
20260509093153 52 186 0.0 0.0 0.00 0.00 0.00 66 1012.0
20260509092651 52 272 0.0 0.0 0.00 0.00 0.00 66 1012.2
20260509092149 52 206 0.0 0.9 0.00 0.00 0.00 67 1012.2
20260509091646 52 223 0.0 0.0 0.00 0.00 0.00 67 1012.2
20260509091142 52 228 0.0 0.9 0.00 0.00 0.00 67 1012.2
20260509090640 52 193 0.0 0.0 0.00 0.00 0.00 67 1012.3
20260509090137 52 140 0.9 0.9 0.00 0.00 0.00 67 1012.3
20260509085635 52 89 1.7 1.7 0.00 0.00 0.00 66 1012.1
20260509085130 52 288 0.0 0.9 0.00 0.00 0.00 66 1012.2
20260509084628 52 314 0.9 1.7 0.00 0.00 0.00 66 1012.4
20260509084125 52 315 0.9 1.7 0.00 0.00 0.00 66 1012.2
20260509083622 52 323 0.9 1.7 0.00 0.00 0.00 65 1012.4
20260509083118 52 272 0.0 0.0 0.00 0.00 0.00 65 1012.4
20260509082616 52 253 0.0 0.0 0.00 0.00 0.00 65 1012.3
20260509082113 53 232 0.0 1.7 0.00 0.00 0.00 64 1012.3
20260509081610 54 67 0.9 0.9 0.00 0.00 0.00 62 1012.3
20260509081107 54 138 0.9 0.9 0.00 0.00 0.00 59 1012.2
20260509080605 54 302 0.9 1.7 0.00 0.00 0.00 58 1012.4
20260509075600 54 324 1.7 2.6 0.00 0.00 0.00 59 1012.4
20260509075058 54 283 2.6 5.2 0.00 0.00 0.00 59 1012.3
20260509074555 54 291 3.5 6.1 0.00 0.00 0.00 59 1012.6
20260509074051 54 279 3.5 3.5 0.00 0.00 0.00 58 1012.2
20260509073548 54 281 1.7 3.5 0.00 0.00 0.00 58 1012.3
20260509073044 54 274 3.5 5.2 0.00 0.00 0.00 58 1012.3
20260509072541 54 286 2.6 3.5 0.00 0.00 0.00 58 1012.3
20260509072038 54 282 4.3 7.0 0.00 0.00 0.00 59 1012.5
20260509071534 54 308 2.6 3.5 0.00 0.00 0.00 59 1012.4
20260509071032 54 284 2.6 5.2 0.00 0.00 0.00 59 1012.6
20260509070529 54 284 3.5 5.2 0.00 0.00 0.00 59 1012.3
20260509070025 54 302 3.5 3.5 0.00 0.00 0.00 59 1012.4
20260509065520 54 268 3.5 5.2 0.00 0.00 0.00 59 1012.5
20260509065017 54 284 2.6 3.5 0.00 0.00 0.00 59 1012.5
20260509064515 54 296 1.7 3.5 0.00 0.00 0.00 59 1012.5
20260509064013 54 298 2.6 3.5 0.00 0.00 0.00 59 1012.4
20260509063508 54 276 1.7 5.2 0.00 0.00 0.00 58 1012.6
20260509063005 54 299 1.7 2.6 0.00 0.00 0.00 58 1012.8
20260509062502 54 296 1.7 7.0 0.00 0.00 0.00 58 1012.5
20260509062000 54 282 4.3 5.2 0.00 0.00 0.00 58 1012.8